Location: Banff
(51.1667°N, 115.5667°W)
Time: 14:06:03
(UTC+00:00)

Altair - Pass Details

Date: 03 December 2020
Orbit: 1501 x 1682 km, 47.2° (Epoch: 14 January)

Event Time Altitude Azimuth Distance (km) Brightness Sun altitude
Rises 00:49:01 0° 176° (S) 4,766 10.3 -10.7°
Reaches altitude 10° 00:54:16 10° 152° (SSE) 3,746 9.5 -11.4°
Maximum altitude 00:58:21 14° 126° (SE) 3,438 9.0 -12.0°
Drops below altitude 10° 01:02:23 10° 100° (E) 3,699 9.0 -12.6°
Enters shadow 01:02:31 10° 99° (E) 3,718 9.0 -12.6°
